SL-16 DEB, 28436

Orbit data source: Space-Track

SL-16 DEB, 28436 is space debris in SSO originally from a launch on Mon, 10 Dec 2001 UTC launched from the Tyuratam Missile And Space Complex (TTMTR). Debris objects in space refer to the collection of defunct objects orbiting the Earth. Examples of debris include non-operational satellites, rocket bodies, and fragments generated from explosions, collisions, or faulty payload assembly.

Loading next visibility...
Identifier
28436, 2001-056K
Orbit
SSO
Last TLE update
15 hours ago
Origin
Manufacturer
Yuzhnoe
Mission
Spacecraft
Bus & Motor
SEP MOTOR COVER, Unknown motor
Mass
~1 kg wet, ~1 kg dry
Launch date (UTC)
2001-12-10 (24 years ago)
Launch vehicle
Unknown
Launch site
Tyuratam Missile And Space Complex (TTMTR)
Object type
Payload
Rocket body
Debris
Shape & HBR
Cone, 1 m
Radar Cross Section
0.635 m², Small (<0.1 m²)

Expand to show TLE details & history

TLE from 15 hours ago
0 SL-16 DEB
1 28436U 01056K   25183.90053346 -.00000011  00000-0  57810-4 0  9992
2 28436  99.4240 148.5811 0191453 268.7930 154.1242 13.29027814142271
Epoch: 2025-07-02T21:36Z
TLE epoch observation values (Epoch: 2025-07-02T21:36:46.09Z)
Latitude
62.40859°
Longitude
-115.20837°
Altitude
1,291.278 km
Speed
7.154 km/s
True Right ascension
08h 40m 38s
True Declination
62° 16' 37"
Sunlit
Object was in daylight at epoch
Visualization orbit readout
Latitude
71.26466°
Longitude
-125.37361°
Altitude
1,302.578 km
Speed
7.144 km/s
Apparent Right ascension
10h 38m 31s
Apparent Declination
25° 55' 38"
Sunlit
Object is in daylight
Visualization observer readout
Local Sidereal Time
23:53:41
Azimuth
18.188° NNE
Elevation
-21.868°
Doppler factor
1
Orbital elements
Apogee altitude
1,291.832 km
Perigee altitude
1,003.661 km
Semi-major axis
7,525.884 km
Eccentricity
0.01915
Inclination
99.424°
RAAN
148.5811°
Arg. of periapsis
268.793°
True anomaly
Unknown
Mean anomaly
154.1242°
Eccentric anomaly
Unknown
Mean motion
3.32435 °/min
Orbital period
108.29 mins
BSTAR
0.00005781
Loading maneuver chart data...
Loading SW <> Apogee altitude chart data...
Loading historical data...
Loading historical data...
Loading historical data...
Loading historical data...
Loading historical data...
Loading historical data...
Loading historical data...

SL-16 DEB Visibility forecast

Observer location: undefined°, undefined°

Span
Click to sort rows by Start time (UTC) header in descending order
Start Az.
Max El. time (UTC)
Max El. Az.
Max El.
End time (UTC)
End Az.
9 mins2025-07-03 12:20:04.743Z345.401° N2025-07-03 12:25:04.743Z302.894° NW18.581°2025-07-03 12:29:04.743Z266.766° W
12 mins2025-07-03 20:54:04.743Z136.697° SSE2025-07-03 20:59:04.743Z80.517° E37.826°2025-07-03 21:06:04.743Z356.915° N
10 mins2025-07-03 22:42:04.743Z215.735° SW2025-07-03 22:46:04.743Z259.018° W27.315°2025-07-03 22:52:04.743Z321.3° NNW
12 mins2025-07-04 10:03:04.743Z26.901° NE2025-07-04 10:09:04.743Z106.681° ESE39.389°2025-07-04 10:15:04.743Z175.241° S
11 mins2025-07-04 11:50:04.743Z349.822° N2025-07-04 11:55:04.743Z300.057° NW26.813°2025-07-04 12:01:04.743Z241.937° WSW
|